K5HAS Weather Reports


Display with metric or nautical units.
time (UTC)temp
F
wind
direction
speed
MPH
gust
MPH
rain 1hr
in
rain 24hr
in
rain mn
in
humidity
%
barometer
mb
20260505125041 74 202 7.0 14.0 0.00 0.00 0.00 88 1007.1
20260505124803 74 90 7.0 11.0 0.00 0.00 0.00 88 1007.1
20260505124042 74 90 7.0 13.0 0.00 0.00 0.00 88 1007.0
20260505123540 74 176 8.0 13.0 0.00 0.00 0.00 88 1007.0
20260505123038 74 164 8.0 13.0 0.00 0.00 0.00 88 1007.0
20260505122539 74 168 8.0 14.0 0.00 0.00 0.00 88 1006.6
20260505122040 73 90 8.0 14.0 0.00 0.00 0.00 88 1006.6
20260505121757 73 191 8.0 14.0 0.00 0.00 0.00 88 1006.6
20260505121245 73 166 7.0 14.0 0.00 0.00 0.00 88 1006.6
20260505120519 73 90 7.0 11.0 0.00 0.00 0.00 88 1006.6
20260505120018 73 163 7.0 11.0 0.00 0.00 0.00 88 1006.6
20260505115745 73 170 7.0 11.0 0.00 0.00 0.00 88 1006.7
20260505115016 73 152 6.0 11.0 0.00 0.00 0.00 88 1006.7
20260505114740 72 166 7.0 11.0 0.00 0.00 0.00 88 1006.7
20260505114016 72 90 6.0 11.0 0.00 0.00 0.00 88 1006.7
20260505113517 72 170 6.0 9.0 0.00 0.00 0.00 88 1006.7
20260505113236 72 155 6.0 8.0 0.00 0.00 0.00 88 1006.7
20260505112514 72 160 6.0 9.0 0.00 0.00 0.00 88 1006.7
20260505112234 72 157 6.0 10.0 0.00 0.00 0.00 88 1006.7
20260505111513 72 161 6.0 10.0 0.00 0.00 0.00 88 1006.7
20260505111012 72 90 6.0 10.0 0.00 0.00 0.00 88 1006.7
20260505110505 72 161 6.0 10.0 0.00 0.00 0.00 88 1006.7
20260505101843 72 166 7.0 12.0 0.00 0.00 0.00 87 1006.6
20260505101330 72 164 7.0 13.0 0.00 0.00 0.00 87 1006.8
20260505100820 72 90 7.0 13.0 0.00 0.00 0.00 87 1006.8
20260505100314 72 90 7.0 12.0 0.00 0.00 0.00 87 1006.8
20260505095803 72 164 6.0 13.0 0.00 0.00 0.00 87 1006.8
20260505095249 72 90 6.0 11.0 0.00 0.00 0.00 87 1006.8
20260505094743 72 161 6.0 11.0 0.00 0.00 0.00 87 1006.8
20260505094233 72 189 6.0 10.0 0.00 0.00 0.00 87 1007.1
20260505093950 72 186 6.0 13.0 0.00 0.00 0.00 87 1007.1
20260505093218 72 90 6.0 13.0 0.00 0.00 0.00 87 1007.1
20260505092202 72 90 6.0 10.0 0.00 0.00 0.00 87 1007.0
20260505091651 72 90 5.0 10.0 0.00 0.00 0.00 87 1007.0
20260505091137 72 170 5.0 10.0 0.00 0.00 0.00 87 1007.1
20260505090631 72 168 6.0 10.0 0.00 0.00 0.00 87 1007.1
20260505090125 72 175 5.0 9.0 0.00 0.00 0.00 87 1007.1
20260505085611 72 184 5.0 11.0 0.00 0.00 0.00 87 1007.1
20260505085101 72 174 5.0 11.0 0.00 0.00 0.00 87 1007.1
20260505084558 72 164 5.0 13.0 0.00 0.00 0.00 87 1007.1
20260505084059 72 216 5.0 13.0 0.00 0.00 0.00 87 1007.1
20260505083559 72 169 6.0 13.0 0.00 0.00 0.00 87 1007.1
20260505083324 72 90 6.0 13.0 0.00 0.00 0.00 87 1007.1
20260505082559 72 90 6.0 11.0 0.00 0.00 0.00 87 1007.1
20260505082056 71 183 5.0 10.0 0.00 0.00 0.00 87 1007.1
20260505081558 71 168 5.0 10.0 0.00 0.00 0.00 87 1007.1
20260505081307 71 171 5.0 10.0 0.00 0.00 0.00 86 1007.1
20260505080539 71 191 5.0 10.0 0.00 0.00 0.00 86 1007.1
20260505080038 71 168 6.0 10.0 0.00 0.00 0.00 86 1007.1
20260505075538 71 90 7.0 10.0 0.00 0.00 0.00 86 1007.2
20260505075036 71 90 7.0 9.0 0.00 0.00 0.00 86 1007.2
20260505074536 71 172 6.0 9.0 0.00 0.00 0.00 86 1007.2
20260505074036 71 172 5.0 9.0 0.00 0.00 0.00 86 1007.7
20260505073535 71 90 5.0 9.0 0.00 0.00 0.00 86 1007.7
20260505073036 71 164 5.0 10.0 0.00 0.00 0.00 86 1007.7
20260505072535 71 90 6.0 12.0 0.00 0.00 0.00 86 1007.8
20260505072035 71 166 6.0 12.0 0.00 0.00 0.00 86 1007.8
20260505071532 71 170 7.0 13.0 0.00 0.00 0.00 86 1007.8
20260505071031 71 159 7.0 13.0 0.00 0.00 0.00 86 1008.2
20260505070520 71 161 7.0 10.0 0.00 0.00 0.00 86 1008.2
20260505070010 71 168 6.0 10.0 0.00 0.00 0.00 86 1008.2
20260505065457 71 90 6.0 10.0 0.00 0.00 0.00 85 1008.3
20260505064950 71 159 7.0 11.0 0.00 0.00 0.00 85 1008.3
20260505064700 71 182 7.0 11.0 0.00 0.00 0.00 85 1008.6
20260505063930 71 159 7.0 11.0 0.00 0.00 0.00 85 1008.6
20260505063425 71 90 7.0 11.0 0.00 0.00 0.00 85 1008.6
20260505063135 71 167 7.0 10.0 0.00 0.00 0.00 85 1008.7
20260505062629 71 167 7.0 11.0 0.00 0.00 0.00 85 1008.7
20260505061851 71 162 8.0 11.0 0.00 0.00 0.00 85 1008.7
20260505061340 71 152 7.0 10.0 0.00 0.00 0.00 85 1008.7
20260505060835 71 90 7.0 10.0 0.00 0.00 0.00 85 1008.7
20260505060324 71 161 7.0 10.0 0.00 0.00 0.00 85 1008.7
20260505055818 71 90 6.0 9.0 0.00 0.00 0.00 85 1008.9
20260505055313 71 167 5.0 9.0 0.00 0.00 0.00 85 1008.9
20260505055026 71 168 5.0 9.0 0.00 0.00 0.00 85 1008.9
20260505054253 71 165 6.0 10.0 0.00 0.00 0.00 85 1009.1
20260505053746 71 166 5.0 10.0 0.00 0.00 0.00 85 1009.1
20260505053244 71 170 4.0 7.0 0.00 0.00 0.00 84 1009.1
20260505052746 71 90 4.0 8.0 0.00 0.00 0.00 84 1009.3
20260505052245 71 178 5.0 10.0 0.00 0.00 0.00 84 1009.3
20260505051745 71 171 7.0 10.0 0.00 0.00 0.00 84 1009.3
20260505050739 71 165 8.0 13.0 0.00 0.00 0.00 84 1009.1
20260505050503 70 158 8.0 12.0 0.00 0.00 0.00 84 1009.1
20260505041711 70 90 6.0 9.0 0.00 0.00 0.00 83 1009.3
20260505041210 71 171 7.0 11.0 0.00 0.00 0.00 83 1009.2
20260505040708 71 187 8.0 11.0 0.00 0.00 0.00 83 1009.2
20260505040206 70 164 8.0 11.0 0.00 0.00 0.00 83 1009.2
20260505035708 70 159 8.0 11.0 0.00 0.00 0.00 83 1009.3
20260505035435 71 162 7.0 11.0 0.00 0.00 0.00 82 1009.3
20260505034706 71 156 8.0 11.0 0.00 0.00 0.00 82 1009.3
20260505034206 71 160 8.0 11.0 0.00 0.00 0.00 82 1009.3
20260505033706 71 161 8.0 10.0 0.00 0.00 0.00 82 1009.3
20260505033210 71 155 8.0 11.0 0.00 0.00 0.00 82 1009.3
20260505032707 71 153 7.0 11.0 0.00 0.00 0.00 82 1009.3
20260505032206 71 165 8.0 11.0 0.00 0.00 0.00 81 1009.3
20260505031926 71 90 8.0 11.0 0.00 0.00 0.00 81 1009.3
20260505031158 71 159 8.0 11.0 0.00 0.00 0.00 81 1009.1
20260505030647 71 166 8.0 11.0 0.00 0.00 0.00 81 1009.1
20260505030137 71 90 8.0 11.0 0.00 0.00 0.00 81 1009.1
20260505025631 71 156 8.0 11.0 0.00 0.00 0.00 81 1009.1
20260505025121 71 157 8.0 12.0 0.00 0.00 0.00 81 1009.1
20260505024838 71 169 7.0 12.0 0.00 0.00 0.00 80 1009.1
20260505024318 71 160 6.0 10.0 0.00 0.00 0.00 80 1009.3
20260505023548 71 90 6.0 10.0 0.00 0.00 0.00 80 1009.3
20260505023036 72 159 6.0 10.0 0.00 0.00 0.00 80 1009.3
20260505022526 72 157 5.0 9.0 0.00 0.00 0.00 80 1009.3
20260505022013 72 166 5.0 9.0 0.00 0.00 0.00 80 1009.3
20260505021501 72 150 6.0 10.0 0.00 0.00 0.00 80 1009.3
20260505020945 73 160 7.0 11.0 0.00 0.00 0.00 79 1009.2
20260505020429 73 90 8.0 11.0 0.00 0.00 0.00 79 1009.2
20260505015926 73 132 7.0 12.0 0.00 0.00 0.00 79 1009.2
20260505015427 73 161 7.0 12.0 0.00 0.00 0.00 79 1009.2
20260505014926 73 161 8.0 12.0 0.00 0.00 0.00 79 1009.2
20260505014426 74 161 9.0 12.0 0.00 0.00 0.00 79 1008.8
20260505013927 74 162 9.0 14.0 0.00 0.00 0.00 79 1008.8
20260505013424 74 146 10.0 14.0 0.00 0.00 0.00 78 1008.8
20260505012926 74 90 10.0 14.0 0.00 0.00 0.00 78 1008.8
20260505012417 74 157 10.0 17.0 0.00 0.00 0.00 78 1008.8
20260505011907 75 155 10.0 17.0 0.00 0.00 0.00 78 1008.8
20260505011401 75 163 10.0 17.0 0.00 0.00 0.00 78 1008.7
20260505010851 75 90 11.0 17.0 0.00 0.00 0.00 78 1008.7
20260505010345 75 90 11.0 17.0 0.00 0.00 0.00 77 1008.7
20260505005842 75 139 11.0 20.0 0.00 0.00 0.00 77 1008.8
20260505005609 75 90 12.0 20.0 0.00 0.00 0.00 77 1008.8
20260505004841 75 90 13.0 21.0 0.00 0.00 0.00 77 1008.8
20260505004558 76 157 12.0 21.0 0.00 0.00 0.00 77 1008.7
20260505003841 76 164 11.0 17.0 0.00 0.00 0.00 77 1008.7
20260505003342 76 149 11.0 17.0 0.00 0.00 0.00 76 1008.7
20260505002842 76 162 11.0 23.0 0.00 0.00 0.00 76 1008.8
20260505002341 76 139 11.0 23.0 0.00 0.00 0.00 76 1008.8
20260505000837 76 90 11.0 20.0 0.00 0.00 0.00 75 1009.2
20260505000331 76 150 10.0 17.0 0.00 0.00 0.00 75 1009.2
20260504235821 77 153 10.0 17.0 0.00 0.00 0.00 75 1009.3
20260504235310 77 124 11.0 18.0 0.00 0.00 0.00 75 1009.3
20260504234808 77 120 11.0 18.0 0.00 0.00 0.00 75 1009.3
20260504234255 77 128 10.0 18.0 0.00 0.00 0.00 74 1009.5
20260504233749 77 145 10.0 18.0 0.00 0.00 0.00 74 1009.5
20260504233239 77 156 10.0 22.0 0.00 0.00 0.00 74 1009.5
20260504232731 78 159 11.0 22.0 0.00 0.00 0.00 74 1009.3
20260504232219 78 172 12.0 23.0 0.00 0.00 0.00 73 1009.3
20260504231929 78 90 13.0 23.0 0.00 0.00 0.00 73 1009.3
20260504231202 78 90 14.0 22.0 0.00 0.00 0.00 73 1009.5
20260504230431 78 161 13.0 24.0 0.00 0.00 0.00 73 1009.5
20260504225700 79 175 12.0 24.0 0.00 0.00 0.00 73 1009.6
20260504225420 79 90 13.0 23.0 0.00 0.00 0.00 73 1009.6
20260504224659 79 164 14.0 23.0 0.00 0.00 0.00 72 1009.6
20260504224159 79 197 15.0 22.0 0.00 0.00 0.00 72 1009.4
20260504223659 79 159 13.0 22.0 0.00 0.00 0.00 72 1009.4
20260504223200 79 153 11.0 17.0 0.00 0.00 0.00 72 1009.4
20260504222659 80 90 12.0 23.0 0.00 0.00 0.00 72 1009.5
20260504222159 80 136 13.0 23.0 0.00 0.00 0.00 71 1009.5
20260504221700 80 145 12.0 20.0 0.00 0.00 0.00 72 1009.5
20260504221154 81 90 12.0 23.0 0.00 0.00 0.00 72 1009.7
20260504220906 81 155 13.0 23.0 0.00 0.00 0.00 72 1009.7
20260504220128 81 145 14.0 23.0 0.00 0.00 0.00 72 1009.7
20260504215617 81 90 13.0 21.0 0.00 0.00 0.00 72 1009.9
20260504215111 81 90 12.0 21.0 0.00 0.00 0.00 72 1009.9
20260504214604 81 139 12.0 20.0 0.00 0.00 0.00 72 1009.9
20260504214335 81 90 13.0 21.0 0.00 0.00 0.00 72 1010.3
20260504213605 81 141 12.0 21.0 0.00 0.00 0.00 72 1010.3
20260504213107 80 141 11.0 18.0 0.00 0.00 0.00 72 1010.3
20260504212605 80 90 11.0 22.0 0.00 0.00 0.00 72 1010.5
20260504212341 80 157 12.0 22.0 0.00 0.00 0.00 72 1010.5
20260504211833 80 153 13.0 22.0 0.00 0.00 0.00 72 1010.5
20260504211048 80 90 12.0 22.0 0.00 0.00 0.00 72 1010.8
20260504210532 80 90 13.0 19.0 0.00 0.00 0.00 72 1010.8
20260504210020 80 145 12.0 19.0 0.00 0.00 0.00 72 1010.8
20260504205509 80 166 11.0 23.0 0.00 0.00 0.00 72 1010.8
20260504205221 80 146 11.0 23.0 0.00 0.00 0.00 72 1010.8
20260504204452 80 151 12.0 23.0 0.00 0.00 0.00 72 1011.2
20260504203941 80 137 12.0 23.0 0.00 0.00 0.00 72 1011.2
20260504203657 80 90 12.0 21.0 0.00 0.00 0.00 72 1011.2
20260504202919 80 168 11.0 21.0 0.00 0.00 0.00 71 1011.3
20260504202409 80 136 12.0 21.0 0.00 0.00 0.00 71 1011.3
20260504202131 80 90 12.0 21.0 0.00 0.00 0.00 71 1011.3
20260504201354 80 90 11.0 18.0 0.00 0.00 0.00 71 1011.3
20260504200841 80 142 10.0 18.0 0.00 0.00 0.00 71 1011.3
20260504200344 81 195 11.0 21.0 0.00 0.00 0.00 71 1011.3
20260504195839 81 153 12.0 21.0 0.00 0.00 0.00 71 1011.4
20260504195338 81 156 11.0 22.0 0.00 0.00 0.00 71 1011.4
20260504194840 81 153 13.0 22.0 0.00 0.00 0.00 72 1011.4
20260504194338 80 168 13.0 22.0 0.00 0.00 0.00 71 1011.8
20260504193839 80 132 12.0 22.0 0.00 0.00 0.00 71 1011.8
20260504193340 81 137 10.0 18.0 0.00 0.00 0.00 71 1011.8
20260504192838 81 146 10.0 21.0 0.00 0.00 0.00 71 1011.9
20260504192339 81 107 13.0 21.0 0.00 0.00 0.00 71 1011.9
20260504191839 81 159 12.0 19.0 0.00 0.00 0.00 71 1011.9
20260504191337 81 90 10.0 18.0 0.00 0.00 0.00 72 1011.9
20260504190827 80 145 10.0 18.0 0.00 0.00 0.00 72 1011.9
20260504190322 80 90 10.0 19.0 0.00 0.00 0.00 72 1011.9
20260504185817 80 136 11.0 19.0 0.00 0.00 0.00 72 1012.0
20260504185316 80 153 12.0 20.0 0.00 0.00 0.00 71 1012.0
20260504184818 80 127 11.0 20.0 0.00 0.00 0.00 72 1012.0
20260504184316 80 165 9.0 17.0 0.00 0.00 0.00 72 1012.2
20260504183816 80 160 10.0 17.0 0.00 0.00 0.00 71 1012.2
20260504183317 81 163 11.0 21.0 0.00 0.00 0.00 71 1012.2
20260504182816 80 90 11.0 21.0 0.00 0.00 0.00 71 1012.0
20260504182316 81 170 11.0 21.0 0.00 0.00 0.00 71 1012.0
20260504181316 82 129 10.0 17.0 0.00 0.00 0.00 71 1012.4
20260504181030 82 90 10.0 18.0 0.00 0.00 0.00 71 1012.4
20260504180537 82 172 10.0 18.0 0.00 0.00 0.00 71 1012.4
20260504175802 82 162 11.0 18.0 0.00 0.00 0.00 72 1012.5
20260504175513 82 126 12.0 24.0 0.00 0.00 0.00 72 1012.5
20260504174739 82 90 13.0 24.0 0.00 0.00 0.00 72 1012.5
20260504174231 82 178 12.0 24.0 0.00 0.00 0.00 72 1012.7
20260504173731 82 90 9.0 21.0 0.00 0.00 0.00 72 1012.7
20260504173225 81 192 8.0 21.0 0.00 0.00 0.00 72 1012.7
20260504172729 81 209 8.0 21.0 0.00 0.00 0.00 72 1013.0
20260504172450 81 199 8.0 18.0 0.00 0.00 0.00 72 1013.0
20260504171727 81 168 7.0 14.0 0.00 0.00 0.00 73 1013.0
20260504171448 81 187 8.0 14.0 0.00 0.00 0.00 73 1013.0
20260504170726 81 90 8.0 6.0 0.00 0.00 0.00 74 1013.0
20260504160304 78 205 7.0 19.0 0.00 0.00 0.00 76 1013.7
20260504150703 77 171 13.0 21.0 0.00 0.00 0.00 81 1013.6
20260504150203 76 164 13.0 22.0 0.00 0.00 0.00 81 1013.6
20260504141144 72 174 6.0 13.0 0.00 0.00 0.00 85 1013.9
20260504140124 70 151 5.0 14.0 0.00 0.00 0.00 85 1013.9